DW2047 Weather Reports


time (UTC)temp
F
wind
direction
speed
knots
gust
knots
rain 1hr
in
rain 24hr
in
rain mn
in
humidity
%
barometer
mb
20260905000058 89 135 7.0 10.4 0.00 0.06 0.06 57 1011.4
20260904235524 89 137 5.2 10.4 0.00 0.06 0.06 55 1011.4
20260904235002 90 129 5.2 11.3 0.00 0.06 0.06 54 1011.4
20260904234546 90 128 5.2 11.3 0.00 0.06 0.06 53 1011.5
20260904234023 90 137 4.3 10.4 0.00 0.06 0.06 54 1011.4
20260904233605 91 139 4.3 11.3 0.00 0.06 0.06 54 1011.3
20260904233045 91 144 6.1 11.3 0.00 0.06 0.06 54 1011.3
20260904232520 92 111 6.1 14.8 0.00 0.06 0.06 53 1011.3
20260904232105 94 87 8.7 14.8 0.00 0.06 0.06 51 1011.3
20260904231549 95 110 5.2 10.4 0.00 0.06 0.06 50 1011.3
20260904231019 96 146 1.7 5.2 0.00 0.06 0.06 44 1011.3
20260904230601 96 208 0.9 7.0 0.00 0.06 0.06 42 1011.2
20260904230059 96 152 2.6 7.8 0.00 0.06 0.06 40 1011.2
20260904225518 96 176 2.6 8.7 0.00 0.06 0.06 40 1011.3
20260904225059 96 130 2.6 8.7 0.00 0.06 0.06 39 1011.3
20260904224541 95 159 2.6 9.6 0.00 0.06 0.06 39 1011.3
20260904224018 96 146 1.7 7.0 0.00 0.06 0.06 38 1011.3
20260904223602 96 151 3.5 7.0 0.00 0.06 0.06 37 1011.4
20260904223049 95 207 1.7 8.7 0.00 0.06 0.06 39 1011.4
20260904222517 96 135 4.3 9.6 0.00 0.06 0.06 39 1011.3
20260904222100 95 167 1.7 6.1 0.00 0.06 0.06 40 1011.4
20260904221539 95 149 0.9 12.2 0.00 0.06 0.06 40 1011.4
20260904221016 95 152 2.6 12.2 0.00 0.06 0.06 40 1011.5
20260904220558 95 150 3.5 11.3 0.00 0.06 0.06 39 1011.4
20260904220049 95 160 2.6 9.6 0.00 0.06 0.06 42 1011.5
20260904215517 94 134 4.3 10.4 0.00 0.06 0.06 41 1011.6
20260904215058 94 137 5.2 10.4 0.00 0.06 0.06 41 1011.7
20260904214540 94 131 4.3 9.6 0.00 0.06 0.06 42 1011.7
20260904214017 95 161 3.5 9.6 0.00 0.06 0.06 39 1011.9
20260904213558 95 142 4.3 9.6 0.00 0.06 0.06 38 1011.9
20260904213040 95 105 3.5 7.8 0.00 0.06 0.06 37 1012.0
20260904212516 95 130 5.2 8.7 0.00 0.06 0.06 37 1012.1
20260904212057 94 78 3.5 9.6 0.00 0.06 0.06 38 1012.1
20260904211543 95 149 5.2 9.6 0.00 0.06 0.06 40 1012.2
20260904211015 95 142 3.5 8.7 0.00 0.06 0.06 42 1012.2
20260904210557 95 160 4.3 9.6 0.00 0.06 0.06 42 1012.2
20260904210046 95 134 4.3 9.6 0.00 0.06 0.06 41 1012.3
20260904205515 94 146 4.3 9.6 0.00 0.06 0.06 42 1012.3
20260904205055 94 148 0.9 9.6 0.00 0.06 0.06 41 1012.3
20260904204538 94 139 6.1 12.2 0.00 0.06 0.06 38 1012.4
20260904204014 94 148 3.5 9.6 0.00 0.06 0.06 40 1012.5
20260904203555 94 138 5.2 9.6 0.00 0.06 0.06 39 1012.6
20260904203037 94 132 4.3 8.7 0.00 0.06 0.06 41 1012.6
20260904202515 94 128 4.3 8.7 0.00 0.06 0.06 40 1012.7
20260904202055 94 131 2.6 7.8 0.00 0.06 0.06 41 1012.7
20260904201545 93 147 3.5 7.8 0.00 0.06 0.06 41 1012.8
20260904201014 93 134 1.7 9.6 0.00 0.06 0.06 46 1013.0
20260904200554 93 220 2.6 9.6 0.00 0.06 0.06 43 1013.0
20260904200050 93 150 4.3 9.6 0.00 0.06 0.06 44 1013.0
20260904195513 93 146 4.3 9.6 0.00 0.06 0.06 45 1013.0
20260904195054 92 155 4.3 9.6 0.00 0.06 0.06 45 1013.1
20260904194544 92 180 1.7 8.7 0.00 0.06 0.06 50 1013.1
20260904194015 92 171 1.7 8.7 0.00 0.06 0.06 49 1013.2
20260904193554 92 213 4.3 8.7 0.00 0.06 0.06 47 1013.3
20260904193037 93 134 2.6 8.7 0.00 0.06 0.06 43 1013.3
20260904192515 93 203 4.3 11.3 0.00 0.06 0.06 45 1013.4
20260904192056 93 114 6.1 10.4 0.00 0.06 0.06 48 1013.3
20260904191536 93 194 6.1 13.0 0.00 0.06 0.06 46 1013.4
20260904191013 92 177 2.6 13.0 0.00 0.06 0.06 54 1013.4
20260904190553 92 207 1.7 9.6 0.00 0.06 0.06 55 1013.5
20260904190037 92 155 3.5 9.6 0.00 0.06 0.06 56 1013.6
20260904185513 92 163 2.6 9.6 0.00 0.06 0.06 56 1013.6
20260904185056 92 132 0.9 9.6 0.00 0.06 0.06 55 1013.7
20260904184601 92 123 5.2 12.2 0.00 0.06 0.06 55 1013.8
20260904184015 92 140 5.2 9.6 0.00 0.06 0.06 55 1013.8
20260904183556 91 132 2.6 7.8 0.00 0.06 0.06 56 1013.9
20260904183041 91 136 3.5 10.4 0.00 0.06 0.06 56 1013.9
20260904182517 91 139 4.3 13.0 0.00 0.06 0.06 56 1013.9
20260904182057 90 147 4.3 13.0 0.00 0.06 0.06 60 1013.9
20260904181536 90 131 6.1 13.0 0.00 0.06 0.06 59 1013.9
20260904181017 90 147 4.3 10.4 0.00 0.06 0.06 62 1014.0
20260904180557 90 130 5.2 12.2 0.00 0.06 0.06 61 1014.0
20260904180036 90 136 6.1 12.2 0.00 0.06 0.06 60 1014.1
20260904175513 90 136 2.6 8.7 0.00 0.06 0.06 61 1014.1
20260904175056 90 154 4.3 11.3 0.00 0.06 0.06 61 1014.1
20260904174608 91 153 7.8 11.3 0.00 0.06 0.06 60 1014.2
20260904174014 91 142 4.3 9.6 0.00 0.06 0.06 62 1014.2
20260904173555 91 151 5.2 9.6 0.00 0.06 0.06 62 1014.2
20260904173043 90 138 5.2 9.6 0.00 0.06 0.06 60 1014.3
20260904172514 90 138 4.3 10.4 0.00 0.06 0.06 61 1014.3
20260904172057 90 171 3.5 10.4 0.00 0.06 0.06 62 1014.3
20260904171539 90 155 0.9 6.1 0.00 0.06 0.06 63 1014.4
20260904171015 89 178 2.6 8.7 0.00 0.06 0.06 64 1014.4
20260904170556 89 130 3.5 8.7 0.00 0.06 0.06 63 1014.5
20260904170047 89 218 0.9 7.0 0.00 0.06 0.06 64 1014.5
20260904165515 89 165 1.7 8.7 0.00 0.06 0.06 66 1014.5
20260904165057 89 148 3.5 8.7 0.00 0.06 0.06 65 1014.5
20260904164540 89 140 1.7 7.8 0.00 0.06 0.06 65 1014.5
20260904164017 88 148 1.7 8.7 0.00 0.06 0.06 64 1014.4
20260904163558 88 145 4.3 8.7 0.00 0.06 0.06 64 1014.4
20260904163051 88 138 3.5 8.7 0.00 0.06 0.06 67 1014.4
20260904162518 87 141 5.2 8.7 0.00 0.06 0.06 67 1014.4
20260904162059 87 133 4.3 8.7 0.00 0.06 0.06 69 1014.3
20260904161542 87 177 3.5 7.8 0.00 0.06 0.06 69 1014.3
20260904161019 87 144 3.5 7.0 0.00 0.06 0.06 71 1014.4
20260904160601 86 225 1.7 7.0 0.00 0.06 0.06 72 1014.4
20260904160045 86 167 0.9 7.0 0.00 0.06 0.06 75 1014.4
20260904155520 85 188 1.7 8.7 0.00 0.06 0.06 75 1014.3
20260904155102 85 185 2.6 8.7 0.00 0.06 0.06 76 1014.4
20260904154547 84 143 5.2 8.7 0.00 0.06 0.06 77 1014.4
20260904154024 83 141 1.7 7.8 0.00 0.06 0.06 81 1014.4
20260904153606 83 139 4.3 7.0 0.00 0.06 0.06 80 1014.3
20260904153101 83 162 1.7 6.1 0.00 0.06 0.06 82 1014.4
20260904152524 83 144 3.5 7.8 0.00 0.06 0.06 81 1014.4
20260904152000 82 211 2.6 5.2 0.00 0.06 0.06 83 1014.3
20260904151552 82 130 1.7 4.3 0.00 0.06 0.06 85 1014.3
20260904151026 81 208 0.9 7.0 0.00 0.06 0.06 85 1014.3
20260904150502 81 170 1.7 7.0 0.00 0.06 0.06 87 1014.3
20260904150050 81 247 0.9 6.1 0.00 0.06 0.06 87 1014.2
20260904145526 80 155 0.0 4.3 0.00 0.06 0.06 89 1014.2
20260904145004 80 197 0.9 5.2 0.00 0.06 0.06 89 1014.2
20260904144552 80 135 1.7 5.2 0.00 0.06 0.06 90 1014.1
20260904144028 80 187 0.9 3.5 0.00 0.06 0.06 90 1014.1
20260904143505 80 167 1.7 7.0 0.00 0.06 0.06 91 1014.1
20260904143054 79 167 2.6 7.0 0.00 0.06 0.06 91 1014.1
20260904142530 79 146 1.7 6.1 0.00 0.06 0.06 91 1014.1
20260904142006 79 165 1.7 7.0 0.00 0.06 0.06 91 1014.0
20260904141556 79 155 1.7 7.0 0.00 0.06 0.06 91 1014.0
20260904141033 79 178 0.9 3.5 0.01 0.06 0.06 91 1014.1
20260904140508 78 178 0.9 3.5 0.01 0.06 0.06 91 1014.0
20260904135535 78 178 0.0 2.6 0.02 0.06 0.06 91 1013.9
20260904135012 78 161 0.0 4.3 0.03 0.06 0.06 91 1013.8
20260904134608 78 254 0.9 4.3 0.04 0.06 0.06 91 1013.7
20260904134036 78 244 0.0 3.5 0.05 0.06 0.06 91 1013.7
20260904133510 78 194 0.9 3.5 0.05 0.06 0.06 91 1013.7
20260904133104 78 194 0.0 2.6 0.06 0.06 0.06 91 1013.7
20260904132537 78 194 0.9 2.6 0.06 0.06 0.06 91 1013.7
20260904132014 78 198 0.0 3.5 0.06 0.06 0.06 91 1013.8
20260904131603 78 198 0.0 2.6 0.06 0.06 0.06 91 1013.8
20260904131040 78 199 0.9 3.5 0.05 0.05 0.05 91 1013.8
20260904130515 78 202 0.9 3.5 0.05 0.05 0.05 91 1013.8
20260904130104 78 211 0.9 2.6 0.04 0.04 0.04 91 1013.9
20260904125541 78 138 0.0 0.0 0.04 0.04 0.04 91 1014.0
20260904125021 78 138 0.0 0.0 0.03 0.03 0.03 90 1014.0
20260904124502 78 138 0.0 0.0 0.02 0.02 0.02 90 1014.0
20260904124042 78 138 0.0 2.6 0.01 0.01 0.01 90 1014.0
20260904123519 78 138 0.0 3.5 0.01 0.01 0.01 90 1014.0
20260904123004 78 138 0.9 5.2 0.00 0.00 0.00 89 1014.0
20260904122546 79 153 1.7 5.2 0.00 0.00 0.00 89 1014.0
20260904122022 79 143 0.9 3.5 0.00 0.00 0.00 89 1013.9
20260904121506 79 143 0.9 3.5 0.00 0.00 0.00 89 1013.9
20260904121052 79 143 0.9 4.3 0.00 0.00 0.00 89 1013.9
20260904120525 79 143 1.7 4.3 0.00 0.00 0.00 88 1013.8
20260904120016 79 134 1.7 4.3 0.00 0.00 0.00 88 1013.7
20260904115554 79 74 1.7 3.5 0.00 0.00 0.00 88 1013.6
20260904115032 79 115 0.9 4.3 0.00 0.00 0.00 88 1013.5
20260904114517 79 144 0.0 5.2 0.00 0.00 0.00 88 1013.4
20260904114100 79 146 1.7 5.2 0.00 0.00 0.00 87 1013.3
20260904113535 79 150 0.0 7.8 0.00 0.00 0.00 87 1013.2
20260904113024 79 152 0.9 5.2 0.00 0.00 0.00 87 1013.1
20260904112602 79 158 1.7 4.3 0.00 0.00 0.00 87 1013.0
20260904112039 80 151 0.9 4.3 0.00 0.00 0.00 86 1012.9
20260904111524 80 151 1.7 4.3 0.00 0.00 0.00 86 1012.8
20260904111002 80 151 0.0 6.1 0.00 0.00 0.00 85 1012.8
20260904110543 80 153 0.9 6.1 0.00 0.00 0.00 85 1012.8
20260904110027 80 148 2.6 5.2 0.00 0.00 0.00 85 1012.8
20260904105504 80 180 0.9 6.1 0.00 0.00 0.00 85 1012.8
20260904105044 80 159 2.6 7.8 0.00 0.00 0.00 85 1012.7
20260904104531 80 153 2.6 8.7 0.00 0.00 0.00 85 1012.7
20260904104007 80 147 2.6 8.7 0.00 0.00 0.00 85 1012.7
20260904103546 80 146 3.5 7.8 0.00 0.00 0.00 85 1012.6
20260904103031 80 140 3.5 7.0 0.00 0.00 0.00 85 1012.6
20260904102507 80 147 3.5 7.0 0.00 0.00 0.00 85 1012.5
20260904102048 80 154 3.5 7.0 0.00 0.00 0.00 85 1012.6
20260904101535 80 149 3.5 6.1 0.00 0.00 0.00 85 1012.6
20260904101010 80 142 1.7 6.1 0.00 0.00 0.00 85 1012.6
20260904100555 80 154 1.7 6.1 0.00 0.00 0.00 85 1012.6
20260904100044 80 126 1.7 6.1 0.00 0.00 0.00 85 1012.5
20260904095516 80 146 1.7 8.7 0.00 0.00 0.00 84 1012.4
20260904095059 80 140 4.3 8.7 0.00 0.00 0.00 84 1012.3
20260904094543 80 165 1.7 7.0 0.00 0.00 0.00 84 1012.3
20260904094019 80 150 1.7 9.6 0.00 0.00 0.00 84 1012.2
20260904093603 80 144 1.7 9.6 0.00 0.00 0.00 84 1012.3
20260904093058 80 141 3.5 7.0 0.00 0.00 0.00 84 1012.3
20260904092525 80 147 2.6 7.0 0.00 0.00 0.00 84 1012.2
20260904092104 80 168 3.5 7.8 0.00 0.00 0.00 84 1012.2
20260904091549 80 140 3.5 9.6 0.00 0.00 0.00 84 1012.3
20260904091025 80 143 2.6 7.8 0.00 0.00 0.00 83 1012.3
20260904090502 80 124 2.6 9.6 0.00 0.00 0.00 83 1012.3
20260904090053 80 144 2.6 9.6 0.00 0.00 0.00 83 1012.3
20260904085529 80 137 1.7 7.8 0.00 0.00 0.00 84 1012.4
20260904085007 80 150 3.5 7.8 0.00 0.00 0.00 84 1012.4
20260904084557 80 144 2.6 8.7 0.00 0.00 0.00 84 1012.4
20260904084033 80 149 3.5 7.0 0.00 0.00 0.00 84 1012.4
20260904083509 80 142 1.7 8.7 0.00 0.00 0.00 84 1012.4
20260904083100 80 148 3.5 9.6 0.00 0.00 0.00 83 1012.4
20260904082536 81 130 2.6 9.6 0.00 0.00 0.00 83 1012.4
20260904082013 81 133 3.5 8.7 0.00 0.00 0.00 83 1012.5
20260904081604 81 159 3.5 8.7 0.00 0.00 0.00 83 1012.5
20260904081041 81 137 3.5 8.7 0.00 0.00 0.00 83 1012.5
20260904080517 81 135 2.6 10.4 0.00 0.00 0.00 83 1012.5
20260904080005 81 131 4.3 10.4 0.00 0.00 0.00 83 1012.5
20260904075546 80 157 2.6 7.8 0.00 0.00 0.00 83 1012.4
20260904075022 80 136 4.3 7.8 0.00 0.00 0.00 83 1012.4
20260904074508 80 175 3.5 7.8 0.00 0.00 0.00 83 1012.4
20260904074053 80 147 2.6 7.8 0.00 0.00 0.00 82 1012.3
20260904073526 81 139 3.5 8.7 0.00 0.00 0.00 82 1012.4
20260904073034 81 171 2.6 5.2 0.00 0.00 0.00 82 1012.5
20260904072554 81 140 1.7 7.0 0.00 0.00 0.00 82 1012.5
20260904072030 80 151 3.5 9.6 0.00 0.00 0.00 82 1012.5
20260904071517 80 130 4.3 9.6 0.00 0.00 0.00 83 1012.5
20260904071059 80 154 3.5 9.6 0.00 0.00 0.00 82 1012.6
20260904070535 80 178 3.5 9.6 0.00 0.00 0.00 82 1012.7
20260904070022 80 133 2.6 7.8 0.00 0.00 0.00 82 1012.7
20260904065603 80 149 2.6 8.7 0.00 0.00 0.00 82 1012.7
20260904065039 80 161 3.5 10.4 0.00 0.00 0.00 82 1012.7
20260904064527 81 151 3.5 10.4 0.00 0.00 0.00 82 1012.8
20260904064106 81 144 2.6 8.7 0.00 0.00 0.00 82 1012.8
20260904063541 81 140 4.3 10.4 0.00 0.00 0.00 82 1012.7
20260904063028 81 153 4.3 10.4 0.00 0.00 0.00 82 1012.7
20260904062504 80 160 3.5 9.6 0.00 0.00 0.00 82 1012.6
20260904062046 80 142 5.2 9.6 0.00 0.00 0.00 82 1012.7
20260904061533 81 165 4.3 9.6 0.00 0.00 0.00 82 1012.7
20260904061009 81 163 4.3 10.4 0.00 0.00 0.00 82 1012.7
20260904060551 81 180 5.2 9.6 0.00 0.00 0.00 82 1012.7
20260904060035 81 129 4.3 9.6 0.00 0.00 0.00 81 1012.7
20260904055510 81 150 3.5 7.8 0.00 0.00 0.00 81 1012.7
20260904055052 81 159 4.3 8.7 0.00 0.00 0.00 81 1012.7
20260904054538 81 143 3.5 8.7 0.00 0.00 0.00 81 1012.6
20260904054018 80 154 3.5 9.6 0.00 0.00 0.00 82 1012.6
20260904053555 80 153 3.5 10.4 0.00 0.00 0.00 82 1012.6
20260904053052 80 136 4.3 11.3 0.00 0.00 0.00 82 1012.7
20260904052520 80 136 3.5 11.3 0.00 0.00 0.00 81 1012.6
20260904052103 80 135 1.7 10.4 0.00 0.00 0.00 81 1012.5
20260904051551 81 139 5.2 10.4 0.00 0.00 0.00 81 1012.5
20260904051025 81 142 5.2 10.4 0.00 0.00 0.00 81 1012.5
20260904050502 81 144 5.2 11.3 0.00 0.00 0.00 81 1012.6
20260904050056 80 133 4.3 11.3 0.00 0.00 0.00 81 1012.5
20260904045528 80 155 4.3 9.6 0.00 0.00 0.00 81 1012.4
20260904045005 80 141 2.6 8.7 0.00 0.00 0.00 81 1012.4
20260904044557 80 134 3.5 8.7 0.00 0.00 0.00 81 1012.4
20260904044033 80 169 3.5 7.8 0.00 0.00 0.00 81 1012.4
20260904043511 80 140 3.5 9.6 0.00 0.00 0.00 80 1012.4
20260904043103 80 139 5.2 9.6 0.00 0.00 0.00 80 1012.3
20260904042540 81 142 3.5 7.8 0.00 0.00 0.00 79 1012.4
20260904042017 81 153 3.5 11.3 0.00 0.00 0.00 79 1012.5
20260904041505 81 126 4.3 11.3 0.00 0.00 0.00 78 1012.5
20260904041046 81 153 4.3 7.8 0.00 0.00 0.00 78 1012.5
20260904040522 81 140 3.5 8.7 0.00 0.00 0.00 78 1012.6
20260904040011 81 125 3.5 7.0 0.00 0.00 0.00 78 1012.4
20260904035552 81 152 3.5 8.7 0.00 0.00 0.00 78 1012.4
20260904035029 81 146 5.2 8.7 0.00 0.00 0.00 77 1012.3
20260904034519 81 142 3.5 8.7 0.00 0.00 0.00 77 1012.4
20260904034058 81 144 3.5 12.2 0.00 0.00 0.00 76 1012.3
20260904033534 81 142 6.1 12.2 0.00 0.00 0.00 76 1012.3
20260904033033 82 141 2.6 9.6 0.00 0.00 0.00 75 1012.3
20260904032604 82 130 3.5 12.2 0.00 0.00 0.00 75 1012.2
20260904032041 82 134 3.5 12.2 0.00 0.00 0.00 75 1012.2
20260904031533 82 146 4.3 9.6 0.00 0.00 0.00 75 1012.2
20260904031009 82 169 3.5 7.0 0.00 0.00 0.00 74 1012.1
20260904030551 82 146 3.5 9.6 0.00 0.00 0.00 74 1012.1
20260904030038 82 136 4.3 9.6 0.00 0.00 0.00 73 1012.0
20260904025515 82 169 3.5 10.4 0.00 0.00 0.00 73 1011.9
20260904025056 82 150 3.5 12.2 0.00 0.00 0.00 73 1012.0
20260904024545 82 153 5.2 12.2 0.00 0.00 0.00 72 1012.0
20260904024020 82 125 3.5 10.4 0.00 0.00 0.00 72 1011.9
20260904023602 82 136 4.3 9.6 0.00 0.00 0.00 71 1011.8
20260904023050 83 145 4.3 10.4 0.00 0.00 0.00 70 1011.8
20260904022526 83 130 3.5 8.7 0.00 0.00 0.00 70 1011.7
20260904022002 83 149 2.6 8.7 0.00 0.00 0.00 69 1011.7
20260904021557 83 156 2.6 9.6 0.00 0.00 0.00 69 1011.7
20260904021033 83 153 3.5 9.6 0.00 0.00 0.00 69 1011.7
20260904020509 83 93 3.5 7.8 0.00 0.00 0.00 69 1011.6
20260904020126 83 151 4.3 9.6 0.00 0.00 0.00 69 1011.5
20260904015540 83 141 2.6 9.6 0.00 0.00 0.00 68 1011.3
20260904015016 83 142 4.3 9.6 0.00 0.00 0.00 68 1011.2
20260904014503 83 159 3.5 9.6 0.00 0.00 0.00 68 1011.2
20260904014044 83 134 6.1 9.6 0.00 0.00 0.00 68 1011.2
20260904013524 84 147 2.6 9.6 0.00 0.00 0.00 68 1011.1
20260904013016 84 135 4.3 11.3 0.00 0.00 0.00 68 1011.1
20260904012550 84 120 4.3 12.2 0.00 0.00 0.00 68 1011.2
20260904012027 84 88 5.2 10.4 0.00 0.00 0.00 68 1011.2
20260904011516 84 135 4.3 10.4 0.00 0.00 0.00 68 1011.1
20260904011059 84 129 4.3 12.2 0.00 0.00 0.00 68 1011.1
20260904010533 85 159 2.6 8.7 0.00 0.00 0.00 68 1011.0
20260904010022 85 110 3.5 7.8 0.00 0.00 0.00 68 1010.9
20260904005605 85 130 1.7 7.8 0.00 0.00 0.00 68 1010.8
20260904005040 85 94 2.6 8.7 0.00 0.00 0.00 67 1010.8
20260904004530 85 132 3.5 9.6 0.00 0.00 0.00 67 1010.8
20260904004005 85 111 4.3 11.3 0.00 0.00 0.00 67 1010.7
20260904003546 86 159 7.0 13.0 0.00 0.00 0.00 66 1010.8
20260904003039 86 140 6.1 13.0 0.00 0.00 0.00 66 1010.8
20260904002513 87 111 6.1 11.3 0.00 0.00 0.00 65 1010.8
20260904002055 87 134 3.5 9.6 0.00 0.00 0.00 65 1010.8
20260904001544 87 130 2.6 10.4 0.00 0.00 0.00 65 1010.7
20260904001020 88 135 3.5 13.0 0.00 0.00 0.00 65 1010.7
20260904000601 88 117 6.1 13.0 0.00 0.00 0.00 64 1010.7